Location: Makanda
(37.6176°N, 89.2090°W)
Time: 17:39:05
(UTC+00:00)

ATLAS 3B R/B - Pass Details

Date: 23 September 2019
Orbit: 1028 x 1166 km, 63.8° (Epoch: 07 October)

Event Time Altitude Azimuth Distance (km) Brightness Sun altitude
Exits shadow 09:46:20 19° 313° (NW) 2,230 4.1 -23.9°
Maximum altitude 09:47:03 20° 321° (NW) 2,212 4.2 -23.8°
Drops below altitude 10° 09:51:42 10° 6° (N) 2,830 5.2 -22.9°
Sets 09:55:11 0° 24° (NNE) 3,784 6.2 -22.3°
